Location: Unspecified
(52.1971°N, 0.0000°E)
Time: 11:08:24
(UTC+00:00)

ISS - Pass Details

Date: 23 May 2019
Orbit: 408 x 418 km, 51.6° (Epoch: 19 June)

Event Time Altitude Azimuth Distance (km) Brightness Sun altitude
Rises 21:21:07 0° 260° (W) 2,353 0.4 -9.6°
Reaches altitude 10° 21:23:12 10° 259° (WSW) 1,493 -0.6 -9.8°
Maximum altitude 21:26:33 78° 173° (S) 432 -3.8 -10.1°
Drops below altitude 10° 21:29:55 10° 87° (E) 1,502 -1.3 -10.4°
Enters shadow 21:31:54 - 86° (E) 2,320 -0.3 -10.6°
